Voltar ao catálogo

ONEWEB-0558

AtivoComunicaçõesPO
NORAD 56059·PAYLOAD·🇬🇧 United Kingdom

Lançado Mar 26, 2023 de Satish Dhawan Space Centre

Loading…

Próximas Passagens (próximas 24 horas)

TLE

AtualizadoSource: CelesTrak SupGP

Época: Sep 14, 2026, 16:57 UTC

1 56059C 23043P   26257.70678657  .00002218  00000+0  53762-2 0  2579
2 56059  87.9272 226.1574 0001802  79.4688 359.6528 13.21820819    16

Acompanhe ONEWEB-0558 em tempo real com AllMySat

Download on the App Store